Weather History for KHDC - February, 2014

Change the Weather History Date:

Tuesday, February 25, 2014

  Actual Average (KMSY) Record (KMSY)
Temperature  
Mean Temperature 65 °F -  
Max Temperature 75 °F 67 °F 82 °F (1972)
Min Temperature 55 °F 46 °F 30 °F (1965)
Growing Degree Days 15 (Base 50)    
Moisture  
Dew Point 59 °F    
Average Humidity 81    
Maximum Humidity 94    
Minimum Humidity 57    
Precipitation  
Precipitation 0.00 in - - ()
Sea Level Pressure  
Sea Level Pressure 30.03 in    
Wind  
Wind Speed 1 mph (South)    
Max Wind Speed 8 mph    
Max Gust Speed -    
Visibility 8 miles    
Events Rain , Thunderstorm    
Averages and records for this station are not official NWS values.
T = Trace of Precipitation, MM = Missing Value Source: NWS Daily Summary

Daily Weather History Graph

Daily Weather History Graph

Search for Another Location

Airport or City:

Trip Planner

Search our weather history database for the weather conditions in past years. The results will help you decide how hot, cold, wet, or windy it might be!

Date:

Astronomy

Feb. 25, 2014 Rise Set
Actual Time 6:32 AM CST 5:57 PM CST
Civil Twilight 6:07 AM CST 6:21 PM CST
Nautical Twilight 5:40 AM CST 6:49 PM CST
Astronomical Twilight 5:12 AM CST 7:17 PM CST
Moon 3:15 AM CST (2/25) 2:14 PM CST (2/25)
Length of Visible Light 12h 13m
Length of Day
11h 25m
Waning Crescent, 18% of the Moon is Illuminated
Feb 25
Waning Crescent
Mar 1
New
Mar 8
First Quarter
Mar 16
Full
Mar 23
Last Quarter

Hourly Weather History & Observations

Time (CST) Temp. Dew Point Humidity Pressure Visibility Wind Dir Wind Speed Gust Speed Precip Events Conditions
12:15 AM 59.0 °F 53.6 °F 82% 30.08 in 10.0 mi Calm Calm - N/A   Scattered Clouds
12:35 AM 59.0 °F 53.6 °F 82% 30.08 in 10.0 mi Calm Calm - N/A   Scattered Clouds
12:55 AM 57.2 °F 53.6 °F 88% 30.08 in 10.0 mi Calm Calm - N/A   Clear
1:15 AM 57.2 °F 53.6 °F 88% 30.07 in 10.0 mi Calm Calm - N/A   Clear
1:30 AM 59.0 °F 55.4 °F 88% 30.07 in 10.0 mi Calm Calm - N/A   Clear
1:55 AM 57.2 °F 53.6 °F 88% 30.07 in 10.0 mi Calm Calm - N/A   Clear
2:15 AM 57.2 °F 53.6 °F 88% 30.06 in 10.0 mi Calm Calm - N/A   Clear
3:55 AM 57.2 °F 53.6 °F 88% 30.05 in 10.0 mi Calm Calm - N/A   Clear
4:15 AM 55.4 °F 53.6 °F 94% 30.05 in 7.0 mi Calm Calm - N/A   Clear
4:35 AM 57.2 °F 53.6 °F 88% 30.05 in 10.0 mi Calm Calm - N/A   Mostly Cloudy
4:55 AM 57.2 °F 53.6 °F 88% 30.05 in 7.0 mi Calm Calm - N/A   Overcast
5:15 AM 57.2 °F 53.6 °F 88% 30.06 in 7.0 mi Calm Calm - N/A   Overcast
5:35 AM 57.2 °F 53.6 °F 88% 30.07 in 10.0 mi Calm Calm - N/A   Overcast
5:55 AM 57.2 °F 53.6 °F 88% 30.07 in 7.0 mi Calm Calm - N/A   Overcast
6:15 AM 57.2 °F 53.6 °F 88% 30.08 in 7.0 mi Calm Calm - N/A   Overcast
6:35 AM 57.2 °F 55.4 °F 94% 30.08 in 7.0 mi Calm Calm - N/A   Overcast
6:55 AM 57.2 °F 55.4 °F 94% 30.08 in 7.0 mi Calm Calm - N/A   Overcast
7:15 AM 59.0 °F 55.4 °F 88% 30.08 in 5.0 mi Calm Calm - N/A   Overcast
7:35 AM 59.0 °F 57.2 °F 94% 30.09 in 7.0 mi Calm Calm - N/A   Overcast
7:55 AM 59.0 °F 57.2 °F 94% 30.10 in 7.0 mi Calm Calm - N/A   Overcast
8:15 AM 60.8 °F 57.2 °F 88% 30.10 in 10.0 mi Calm Calm - N/A   Overcast
8:35 AM 60.8 °F 57.2 °F 88% 30.10 in 10.0 mi Calm Calm - N/A   Overcast
8:55 AM 62.6 °F 57.2 °F 82% 30.10 in 10.0 mi Calm Calm - N/A   Overcast
9:15 AM 64.4 °F 57.2 °F 77% 30.10 in 10.0 mi Calm Calm - N/A   Overcast
9:35 AM 64.4 °F 59.0 °F 83% 30.10 in 7.0 mi Calm Calm - N/A   Overcast
9:55 AM 66.2 °F 59.0 °F 78% 30.10 in 7.0 mi Calm Calm - N/A   Mostly Cloudy
10:15 AM 68.0 °F 59.0 °F 73% 30.10 in 7.0 mi Calm Calm - N/A   Mostly Cloudy
10:35 AM 69.8 °F 59.0 °F 68% 30.10 in 10.0 mi Calm Calm - N/A   Mostly Cloudy
11:15 AM 71.6 °F 59.0 °F 64% 30.09 in 10.0 mi Calm Calm - N/A   Overcast
11:35 AM 71.6 °F 59.0 °F 64% 30.08 in 10.0 mi Calm Calm - N/A   Mostly Cloudy
11:55 AM 71.6 °F 59.0 °F 64% 30.07 in 10.0 mi Calm Calm - N/A   Mostly Cloudy
12:15 PM 73.4 °F 59.0 °F 61% 30.06 in 10.0 mi Calm Calm - N/A   Mostly Cloudy
12:35 PM 75.2 °F 59.0 °F 57% 30.05 in 10.0 mi Calm Calm - N/A   Mostly Cloudy
12:55 PM 73.4 °F 59.0 °F 61% 30.04 in 10.0 mi Calm Calm - N/A   Mostly Cloudy
1:15 PM 73.4 °F 59.0 °F 61% 30.02 in 10.0 mi Calm Calm - N/A   Overcast
1:35 PM 73.4 °F 59.0 °F 61% 30.02 in 10.0 mi Calm Calm - N/A   Overcast
1:55 PM 73.4 °F 59.0 °F 61% 30.01 in 10.0 mi SSW 3.5 mph - N/A   Overcast
2:15 PM 71.6 °F 60.8 °F 69% 30.00 in 10.0 mi South 3.5 mph - N/A   Overcast
2:35 PM 71.6 °F 60.8 °F 69% 29.99 in 10.0 mi SSE 3.5 mph - N/A   Overcast
2:50 PM 69.8 °F 60.8 °F 73% 30.00 in 10.0 mi SSW 5.8 mph - N/A Thunderstorm Thunderstorm
3:15 PM 69.8 °F 60.8 °F 73% 29.99 in 10.0 mi SSW 3.5 mph - N/A   Overcast
3:35 PM 71.6 °F 60.8 °F 69% 29.99 in 10.0 mi South 5.8 mph - N/A   Overcast
3:55 PM 71.6 °F 60.8 °F 69% 29.98 in 7.0 mi South 4.6 mph - N/A   Mostly Cloudy
4:15 PM 71.6 °F 60.8 °F 69% 29.98 in 7.0 mi SSW 4.6 mph - N/A   Mostly Cloudy
4:35 PM 69.8 °F 62.6 °F 78% 29.98 in 7.0 mi South 8.1 mph - N/A   Overcast
4:55 PM 68.0 °F 62.6 °F 83% 29.98 in 5.0 mi South 4.6 mph - N/A   Haze
5:15 PM 68.0 °F 60.8 °F 78% 29.98 in 7.0 mi South 3.5 mph - N/A   Mostly Cloudy
5:35 PM 68.0 °F 60.8 °F 78% 29.98 in 7.0 mi SSE 3.5 mph - N/A   Mostly Cloudy
5:55 PM 68.0 °F 60.8 °F 78% 29.98 in 7.0 mi South 3.5 mph - N/A   Overcast
6:15 PM 66.2 °F 62.6 °F 88% 29.98 in 7.0 mi Calm Calm - N/A   Overcast
6:35 PM 66.2 °F 62.6 °F 88% 29.98 in 7.0 mi Calm Calm - N/A   Overcast
6:55 PM 66.2 °F 62.6 °F 88% 29.98 in 7.0 mi Calm Calm - N/A   Overcast
7:15 PM 66.2 °F 62.6 °F 88% 29.97 in 7.0 mi Calm Calm - N/A   Overcast
7:35 PM 66.2 °F 62.6 °F 88% 29.97 in 7.0 mi Calm Calm - N/A   Overcast
7:55 PM 66.2 °F 60.8 °F 83% 29.97 in 7.0 mi Calm Calm - N/A   Overcast
8:15 PM 66.2 °F 62.6 °F 88% 29.97 in 7.0 mi Calm Calm - N/A   Overcast
8:35 PM 66.2 °F 60.8 °F 83% 29.97 in 7.0 mi Calm Calm - N/A Thunderstorm Overcast
8:55 PM 66.2 °F 60.8 °F 83% 29.97 in 5.0 mi Calm Calm - N/A   Overcast
9:15 PM 66.2 °F 60.8 °F 83% 29.97 in 5.0 mi Calm Calm - N/A   Drizzle
9:35 PM 66.2 °F 62.6 °F 88% 29.96 in 3.0 mi Calm Calm - N/A Rain Rain
9:55 PM 64.4 °F 62.6 °F 94% 29.96 in 3.0 mi Calm Calm - N/A Rain , Thunderstorm Rain
10:15 PM 64.4 °F 62.6 °F 94% 29.95 in 3.0 mi Calm Calm - N/A Rain , Thunderstorm Light Thunderstorms and Rain
10:35 PM 64.4 °F 62.6 °F 94% 29.95 in 2.5 mi Calm Calm - N/A Rain , Thunderstorm Light Thunderstorms and Rain
10:55 PM 64.4 °F 60.8 °F 88% 29.94 in 1.8 mi Calm Calm - N/A Rain Rain
11:15 PM 64.4 °F 62.6 °F 94% 29.92 in 1.8 mi ESE 4.6 mph - N/A Rain Rain
11:35 PM 64.4 °F 62.6 °F 94% 29.94 in 3.0 mi South 6.9 mph - N/A Rain , Thunderstorm Rain
11:55 PM 64.4 °F 62.6 °F 94% 29.93 in 4.0 mi SW 4.6 mph - N/A Rain , Thunderstorm Rain